Location: Newark
(0.5300°S, 127.4800°E)
Time: 11:27:22
(UTC+00:00)

Vanguard 3 - Pass Details

Date: 24 September 2019
Orbit: 508 x 3262 km, 33.3° (Epoch: 20 October)

Event Time Altitude Azimuth Distance (km) Brightness Sun altitude
Rises 18:19:36 0° 230° (SW) 3,091 - -45.6°
Reaches altitude 10° 18:21:32 10° 229° (SW) 2,358 - -45.1°
Maximum altitude 18:27:03 76° 143° (SE) 1,136 - -43.8°
Exits shadow 18:30:05 42° 66° (ENE) 1,780 9.0 -43.0°
Drops below altitude 10° 18:36:57 10° 58° (ENE) 4,103 11.2 -41.3°
Sets 18:41:21 0° 57° (ENE) 5,567 12.0 -40.2°
